This is the latest recevied weather packets stored in our database for station/object K6POO-1. If no packets are shown the sender has not sent any weather packets the latest 10 day(s).
| Time | Temp. | Humidity | Pressure | Rain* | Wind** | Luminosity | Snow |
|---|---|---|---|---|---|---|---|
| 1777558738 | 12.22° C | 86% | 1015.5 hPa | 0 mm | - | 115 W/m² | - |
| 1777558434 | 12.22° C | 87% | 1015.4 hPa | 0 mm | - | 109 W/m² | - |
| 1777558130 | 11.67° C | 87% | 1015.4 hPa | 0 mm | - | 53 W/m² | - |
| 1777557827 | 12.22° C | 87% | 1015.7 hPa | 0 mm | - | 71 W/m² | - |
| 1777557524 | 11.67° C | 87% | 1015.6 hPa | 0 mm | - | 61 W/m² | - |
| 1777557220 | 11.67° C | 87% | 1015.5 hPa | 0 mm | - | 48 W/m² | - |
| 1777556916 | 11.67° C | 88% | 1015.4 hPa | 0 mm | - | 34 W/m² | - |
| 1777556612 | 11.67° C | 88% | 1015.5 hPa | 0 mm | - | 27 W/m² | - |
| 1777556307 | 11.67° C | 87% | 1015.1 hPa | 0 mm | - | 20 W/m² | - |
| 1777556004 | 11.67° C | 87% | 1015.3 hPa | 0 mm | - | 16 W/m² | - |
| 1777555704 | 11.67° C | 87% | 1015.3 hPa | 0 mm | - | 12 W/m² | - |
| 1777555400 | 11.67° C | 87% | 1015.4 hPa | 0 mm | - | 8 W/m² | - |
| 1777555097 | 11.67° C | 87% | 1015.4 hPa | 0 mm | - | 5 W/m² | - |
| 1777554795 | 11.67° C | 87% | 1015.4 hPa | 0 mm | - | 3 W/m² | - |
| 1777554492 | 11.67° C | 87% | 1015.2 hPa | 0 mm | - | 1 W/m² | - |
| 1777554188 | 11.67° C | 87% | 1015.4 hPa | 0 mm | - | 1 W/m² | - |
| 1777553885 | 11.67° C | 86% | 1015.2 hPa | 0 mm | - | 0 W/m² | - |
| 1777553581 | 11.67° C | 86% | 1015.3 hPa | 0 mm | - | 0 W/m² | - |
| 1777553277 | 11.67° C | 86% | 1015.3 hPa | 0 mm | - | 0 W/m² | - |
| 1777552974 | 11.67° C | 86% | 1015.1 hPa | 0 mm | - | 0 W/m² | - |
| 1777552674 | 11.67° C | 86% | 1015.2 hPa | 0 mm | - | 0 W/m² | - |
| 1777552371 | 11.67° C | 86% | 1015.3 hPa | 0 mm | - | 0 W/m² | - |
| 1777552067 | 11.67° C | 87% | 1015.2 hPa | 0 mm | - | 0 W/m² | - |
| 1777551764 | 11.67° C | 86% | 1015.1 hPa | 0 mm | - | 0 W/m² | - |
| 1777551462 | 11.67° C | 86% | 1015 hPa | 0 mm | - | 0 W/m² | - |
* Rain latest hour (hover to see other rain measurements)
** Current wind speed in m/s (hover to see current wind gust speed)